Regional Weather Roundup
Issued by NWS Kansas City/Pleasant Hill, MO

Home | Current Version | Previous Version | Text Only | Print | Product List | Glossary On
Versions: 1 2 3 4 5 6 7 8 9 10 11 12 13 14 15 16 17 18 19 20 21 22 23 24 25 26 27 28
000
ASUS43 KEAX 181310
RWREAX

WEATHER ROUNDUP FOR EASTERN KANSAS AND NORTHWEST MISSOURI
NATIONAL WEATHER SERVICE KANSAS CITY/PLEASANT HILL MO
800 AM CDT WED OCT 18 2017

KSZ040-057-103>105-MOZ028-029-037-043-181400-
...KANSAS CITY METROPOLITAN AREA...

CITY           SKY/WX    TMP DP  RH WIND       PRES   REMARKS
K.C. INTL      PTCLDY    53  44  71 S13       30.05S
K.C. DOWNTOWN  CLEAR     54  45  71 S10       30.06S
LEES SUMMIT    CLEAR     50  44  80 S13       30.08S
OLATHE - IXD   CLEAR     48  44  86 S12       30.06F
OLATHE - OJC   CLEAR     50  43  77 S10       30.07S
LAWRENCE       CLEAR     49  45  86 E6        30.05S

$$

MOZ001>008-011>017-020>025-030>033-038>040-044>046-053-054-181400-
...NORTHERN AND CENTRAL MISSOURI...

CITY           SKY/WX    TMP DP  RH WIND       PRES   REMARKS
ST. JOSEPH     CLEAR     50  46  86 S7        30.03S
MOSBY          SUNNY     52  43  71 S6        30.07S
WARRENSBURG    CLEAR     48  41  76 S9        30.10S
WHITEMAN AFB   CLEAR     46  42  85 S8        30.07R
CLINTON        CLEAR     50  41  71 S8        30.13R HAZE
SEDALIA        CLEAR     49  44  83 S9        30.13S
WARSAW         NOT AVBL
CHILLICOTHE      N/A     49  45  86 S3        30.09R
KIRKSVILLE     CLEAR     47  44  90 S6        30.10R

$$

MOZ041-047>049-056>058-063>065-088>090-097-181400-
...EASTERN AND SOUTHERN MISSOURI...

CITY           SKY/WX    TMP DP  RH WIND       PRES   REMARKS
ST. LOUIS INTL PTCLDY    51  42  71 S7        30.20S
SPIRIT OF STL  PTCLDY    42  42 100 CALM      30.19S
COLUMBIA       CLEAR     46  42  86 S8        30.14F
JEFFERSON CITY CLEAR     43  39  86 SE7       30.16S
ROLLA          CLEAR     50  40  68 S12       30.19R
OSAGE BEACH    CLEAR     47  41  80 S7        30.17R
SPRINGFIELD    CLEAR     48  41  76 S12       30.15R
BRANSON        CLEAR     45  39  81 SE7       30.18F
JOPLIN         CLEAR     50  43  77 S12       30.13R
WEST PLAINS    CLEAR     48  40  73 S5        30.22R

$$

IAZ060-094-KSZ022-034>040-054-083-096-NEZ052-066-093-181400-
...KANSAS...SOUTHEAST NEBRASKA AND IOWA...

CITY           SKY/WX    TMP DP  RH WIND       PRES   REMARKS
TOPEKA         CLEAR     54  45  71 S7        30.02S
MANHATTAN      CLEAR     43  42  97 CALM      30.00S
EMPORIA        CLEAR     50  42  74 S21       30.01F
CHANUTE        CLEAR     48  43  82 S8        30.09S
WICHITA        PTCLDY    53  44  71 S15       30.00S
OMAHA          PTCLDY    50  44  80 S14       29.93F
LINCOLN        CLEAR     51  44  77 S5        29.95S
FALLS CITY     CLEAR     47  43  86 CALM      29.99R
LAMONI         CLEAR     48  44  86 S8        30.04R
DES MOINES     PTCLDY    53  45  74 S12       29.98F

$$





USA.gov is the U.S. government's official web portal to all federal, state and local government web resources and services.